Location: Ferques
(50.8300°N, 1.7599°E)
Time: 19:40:48
(UTC+00:00)

Cosmos 1536 - Pass Details

Date: 19 May 2025
Orbit: 494 x 518 km, 82.5° (Epoch: 22 June)

Event Time Altitude Azimuth Distance (km) Brightness Sun altitude
Rises 21:30:52 0° 353° (N) 2,645 7.5 -12.9°
Reaches altitude 10° 21:33:04 10° 359° (N) 1,749 6.3 -13.1°
Maximum altitude 21:36:48 50° 76° (ENE) 662 3.1 -13.4°
Enters shadow 21:38:50 24° 141° (SE) 1,097 3.7 -13.6°
